Salem, OR

1:02 AM PDT on July 24, 2017 (GMT -0700)
McNary

Weather History for KSLE - December, 2013

Change the Weather History Date:

Friday, December 6, 2013

  Actual Average Record
Temperature  
Mean Temperature 27 °F 41 °F  
Max Temperature 30 °F 47 °F 60 °F (1965)
Min Temperature 24 °F 35 °F 18 °F (1956)
Degree Days  
Heating Degree Days 38 24  
Month to date heating degree days 175 141  
Since 1 July heating degree days 1218 1258  
Cooling Degree Days 0 0  
Month to date cooling degree days 0 0  
Year to date cooling degree days 502 290  
Moisture  
Dew Point 20 °F    
Average Humidity 73    
Maximum Humidity 88    
Minimum Humidity 57    
Precipitation  
Precipitation 0.03 in 0.23 in 4.30 in (1933)
Month to date precipitation 0.87 1.46  
Year to date precipitation 23.19 34.27  
Snow  
Snow 0.00 in - - ()
Month to date snowfall 0.0  
Snow Depth 0.00 in    
Sea Level Pressure  
Sea Level Pressure 30.00 in    
Wind  
Wind Speed 8 mph (North)    
Max Wind Speed 16 mph    
Max Gust Speed 20 mph    
Visibility 6 miles    
Events Snow    
T = Trace of Precipitation, MM = Missing Value Source: NWS Daily Summary

Daily Weather History Graph

Daily Weather History Graph

Search for Another Location

Airport or City:

Trip Planner

Search our weather history database for the weather conditions in past years. The results will help you decide how hot, cold, wet, or windy it might be!

Date:

Astronomy

Dec. 06, 2013 Rise Set
Actual Time 7:35 AM PST 4:30 PM PST
Civil Twilight 7:02 AM PST 5:04 PM PST
Nautical Twilight 6:25 AM PST 5:41 PM PST
Astronomical Twilight 5:49 AM PST 6:16 PM PST
Moon 10:38 AM PST (12/6) 9:16 PM PST (12/6)
Length of Visible Light 10h 02m
Length of Day
8h 55m
Waxing Crescent, 20% of the Moon is Illuminated
Dec 6
Waxing Crescent
Dec 9
First Quarter
Dec 17
Full
Dec 25
Last Quarter
Jan 1
New

Hourly Weather History & Observations

Time (PST) Temp. Windchill Dew Point Humidity Pressure Visibility Wind Dir Wind Speed Gust Speed Precip Events Conditions
12:56 AM 25.0 °F - 21.0 °F 85% 30.14 in 8.0 mi Calm Calm - N/A   Mostly Cloudy
1:56 AM 26.1 °F - 21.0 °F 81% 30.13 in 9.0 mi Calm Calm - N/A   Mostly Cloudy
2:56 AM 26.1 °F 19.4 °F 21.0 °F 81% 30.12 in 10.0 mi North 5.8 mph - N/A   Overcast
3:56 AM 27.0 °F 21.6 °F 19.9 °F 75% 30.11 in 10.0 mi North 4.6 mph - N/A   Overcast
4:56 AM 27.0 °F 23.0 °F 19.0 °F 72% 30.09 in 10.0 mi NE 3.5 mph - N/A   Overcast
5:56 AM 27.0 °F 19.5 °F 18.0 °F 69% 30.07 in 10.0 mi North 6.9 mph - N/A   Overcast
6:56 AM 27.0 °F 18.7 °F 17.1 °F 66% 30.06 in 10.0 mi NNW 8.1 mph - N/A   Overcast
7:56 AM 28.0 °F 20.0 °F 17.1 °F 63% 30.03 in 10.0 mi North 8.1 mph - N/A   Overcast
8:56 AM 28.0 °F 18.6 °F 16.0 °F 61% 30.03 in 10.0 mi North 10.4 mph - N/A   Overcast
9:26 AM 27.0 °F 16.1 °F 19.0 °F 72% 30.01 in 2.5 mi North 12.7 mph 16.1 mph 0.00 in Snow Light Snow
9:35 AM 27.0 °F 16.7 °F 19.0 °F 72% 30.01 in 1.2 mi North 11.5 mph - 0.00 in Snow Light Snow
9:56 AM 26.1 °F 16.8 °F 21.0 °F 81% 30.02 in 2.0 mi North 9.2 mph - 0.00 in Snow Light Snow
10:08 AM 26.1 °F 15.6 °F 21.9 °F 84% 30.01 in 1.8 mi North 11.5 mph - 0.00 in Snow Light Snow
10:32 AM 27.0 °F 17.3 °F 23.0 °F 85% 30.01 in 1.5 mi North 10.4 mph - 0.01 in Snow Light Snow
10:56 AM 27.0 °F 18.0 °F 23.0 °F 85% 30.01 in 0.8 mi North 9.2 mph - 0.02 in Snow Light Snow
11:01 AM 27.0 °F 17.3 °F 24.1 °F 89% 29.99 in 0.8 mi North 10.4 mph - 0.00 in Snow Light Snow
11:04 AM 27.0 °F 17.3 °F 24.1 °F 89% 29.99 in 1.0 mi North 10.4 mph - 0.00 in Snow Light Snow
11:56 AM 28.0 °F 19.3 °F 23.0 °F 81% 29.98 in 7.0 mi North 9.2 mph - 0.00 in   Overcast
12:03 PM 28.0 °F 18.1 °F 24.1 °F 85% 29.97 in 6.0 mi North 11.5 mph - 0.00 in Snow Light Snow
12:56 PM 28.0 °F 18.1 °F 21.0 °F 75% 29.96 in 5.0 mi NNW 11.5 mph - 0.00 in Snow Light Snow
1:56 PM 28.0 °F 18.1 °F 23.0 °F 81% 29.95 in 4.0 mi North 11.5 mph - 0.00 in Snow Light Snow
2:06 PM 28.0 °F 18.6 °F 23.0 °F 81% 29.93 in 2.0 mi North 10.4 mph - 0.00 in Snow Light Snow
2:13 PM 28.0 °F 18.6 °F 24.1 °F 85% 29.93 in 2.0 mi NNW 10.4 mph - 0.00 in Snow Light Snow
2:30 PM 28.9 °F 19.8 °F 23.0 °F 78% 29.93 in 3.0 mi North 10.4 mph - 0.01 in Snow Light Snow
2:56 PM 30.0 °F 22.4 °F 21.9 °F 72% 29.94 in 5.0 mi North 8.1 mph - 0.01 in Snow Light Snow
3:13 PM 30.0 °F 22.4 °F 21.9 °F 72% 29.93 in 5.0 mi North 8.1 mph - 0.00 in Snow Light Snow
3:35 PM 28.9 °F 20.4 °F 21.9 °F 75% 29.94 in 1.8 mi North 9.2 mph - 0.00 in Snow Light Snow
3:44 PM 28.9 °F 22.8 °F 21.9 °F 75% 29.94 in 1.0 mi North 5.8 mph - 0.00 in Snow Light Snow
3:56 PM 28.9 °F 23.9 °F 21.9 °F 75% 29.95 in 0.8 mi NNE 4.6 mph - 0.00 in Snow Light Snow
4:01 PM 28.9 °F 21.1 °F 21.9 °F 75% 29.94 in 1.8 mi North 8.1 mph - 0.00 in Snow Light Snow
4:03 PM 28.9 °F 19.8 °F 21.9 °F 75% 29.94 in 3.0 mi North 10.4 mph - 0.00 in Snow Light Snow
4:15 PM 28.9 °F 20.4 °F 21.0 °F 72% 29.94 in 10.0 mi North 9.2 mph - 0.00 in   Overcast
4:56 PM 30.0 °F 24.1 °F 21.0 °F 69% 29.96 in 10.0 mi North 5.8 mph - 0.00 in   Overcast
5:56 PM 28.9 °F 21.1 °F 16.0 °F 58% 29.97 in 10.0 mi North 8.1 mph - N/A   Overcast
6:56 PM 28.0 °F 19.3 °F 16.0 °F 61% 29.98 in 10.0 mi North 9.2 mph - N/A   Overcast
7:56 PM 27.0 °F 18.0 °F 15.1 °F 61% 30.00 in 10.0 mi North 9.2 mph - N/A   Overcast
8:56 PM 27.0 °F 17.3 °F 15.1 °F 61% 30.02 in 10.0 mi North 10.4 mph - N/A   Overcast
9:56 PM 27.0 °F 16.7 °F 14.0 °F 58% 30.04 in 10.0 mi North 11.5 mph - N/A   Overcast
10:56 PM 27.0 °F 16.7 °F 14.0 °F 58% 30.05 in 10.0 mi North 11.5 mph - N/A   Overcast
11:56 PM 26.1 °F 14.5 °F 12.9 °F 58% 30.06 in 10.0 mi North 13.8 mph - N/A   Overcast